Starlink 32480

operational
NORAD ID: 62039 Int'l Des: 2024-216 Owner: SPXS Country: US Constellation: starlink
LEOCIRCULAR

About Starlink 32480

Description loading...

Live Position

Loading 3D Globe...

Upcoming Passes

Altitude History

Altitude vs Time

uPlot chart will show altitude changes over time

Two-Line Element Set

1 62039U 24216H 25259.11001017 .00040835 00000-0 14831-2 0 9998
2 62039 43.0017 162.4551 0001323 282.5455 77.5249 15.27626771 46010
Epoch: Sep 16, 2025 • Age: 30 hours

Current Status

Altitude 486.6 km
Velocity 7.63 km/s
Sub-Earth Point 42.90°N, 123.42°E
Launch Date Nov 21, 2024
Age 0.8 years
Type internet

Technical Details

Classification Payload
Mass 730.00 kg
Dry Mass 700.00 kg
Total Mass 730.00 kg
Length 0.30 m
Diameter 4.10 m
Span 29.00 m
Shape Box + pan
Manufacturer SPXS
Bus Type Starlink V2M
Phase Status In Orbit
Owner/State SPXS/US

Large Constellations

Loading constellations...